GW6356 Weather Reports


time (UTC)temp
F
wind
direction
speed
knots
gust
knots
rain 1hr
in
rain 24hr
in
rain mn
in
humidity
%
barometer
mb
20260506034506 67 129 0.9 3.5 0.00 0.25 0.12 40 1013.5
20260506034002 67 141 0.9 3.5 0.00 0.25 0.12 39 1013.5
20260506033502 67 120 0.9 4.3 0.00 0.25 0.12 39 1013.4
20260506033008 67 141 0.9 4.3 0.00 0.25 0.12 37 1013.4
20260506032503 67 121 0.0 2.6 0.00 0.25 0.12 37 1013.2
20260506032007 67 145 0.0 1.7 0.00 0.25 0.12 37 1013.1
20260506031517 68 145 0.0 1.7 0.00 0.25 0.12 37 1013.0
20260506031007 68 146 0.0 2.6 0.00 0.25 0.12 36 1013.0
20260506030506 68 150 0.0 2.6 0.00 0.25 0.12 36 1012.9
20260506030022 68 136 0.0 5.2 0.00 0.25 0.12 35 1012.9
20260506025509 68 136 1.7 5.2 0.00 0.25 0.12 34 1012.9
20260506025007 69 151 0.0 2.6 0.00 0.25 0.12 33 1012.6
20260506024527 69 146 0.0 2.6 0.00 0.25 0.12 33 1012.5
20260506024014 69 146 0.0 3.5 0.00 0.25 0.12 32 1012.5
20260506023510 69 141 0.9 3.5 0.00 0.25 0.12 32 1012.4
20260506023015 69 125 1.7 6.1 0.00 0.25 0.12 31 1012.4
20260506022003 70 149 1.7 5.2 0.00 0.25 0.12 30 1012.1
20260506021512 70 149 1.7 5.2 0.00 0.25 0.12 30 1012.0
20260506021011 70 137 1.7 8.7 0.00 0.25 0.12 29 1011.9
20260506020510 70 131 1.7 8.7 0.00 0.25 0.12 29 1011.8
20260506020017 70 74 1.7 5.2 0.00 0.26 0.12 29 1011.7
20260506015508 71 160 0.9 5.2 0.00 0.26 0.12 30 1011.8
20260506014520 71 133 2.6 7.0 0.00 0.26 0.12 30 1011.7
20260506014006 71 82 1.7 10.4 0.00 0.26 0.12 30 1011.7
20260506013024 72 126 2.6 7.0 0.00 0.26 0.12 31 1011.6
20260506012008 72 143 0.9 5.2 0.00 0.26 0.12 31 1011.5
20260506011528 73 141 1.7 7.8 0.00 0.26 0.12 31 1011.5
20260506011005 73 22 1.7 8.7 0.00 0.26 0.12 30 1011.4
20260506010012 74 75 1.7 7.8 0.00 0.26 0.12 29 1011.1
20260506005502 74 119 2.6 9.6 0.00 0.26 0.12 28 1011.1
20260506005002 75 101 4.3 9.6 0.00 0.26 0.12 27 1011.0
20260506004513 76 139 2.6 7.8 0.00 0.26 0.12 27 1011.0
20260506004003 76 125 0.9 7.8 0.00 0.26 0.12 26 1010.9
20260506003503 76 102 2.6 8.7 0.00 0.26 0.12 25 1010.9
20260506003006 76 146 2.6 8.7 0.00 0.26 0.12 25 1010.9
20260506002503 77 111 1.7 8.7 0.00 0.26 0.12 25 1010.9
20260506001517 76 263 2.6 9.6 0.00 0.26 0.12 25 1010.8
20260506000016 78 161 1.7 7.8 0.00 0.26 0.12 25 1010.6
20260505234522 78 79 3.5 8.7 0.00 0.26 0.12 24 1010.5
20260505233504 78 108 1.7 8.7 0.00 0.26 0.12 24 1010.5
20260505233025 78 144 2.6 6.1 0.00 0.26 0.12 22 1010.5
20260505232505 79 92 2.6 6.1 0.00 0.26 0.12 23 1010.5
20260505232003 79 87 2.6 8.7 0.00 0.26 0.12 24 1010.4
20260505231506 79 151 2.6 8.7 0.00 0.26 0.12 24 1010.6
20260505231004 80 133 1.7 5.2 0.00 0.26 0.12 23 1010.6
20260505230504 80 130 2.6 5.2 0.00 0.26 0.12 23 1010.5
20260505230009 80 100 1.7 10.4 0.00 0.26 0.12 25 1010.6
20260505225507 80 294 2.6 10.4 0.00 0.26 0.12 26 1010.6
20260505223505 79 3 3.5 9.6 0.00 0.26 0.12 26 1010.9
20260505223020 78 127 3.5 9.6 0.00 0.26 0.12 26 1011.0
20260505222505 79 146 0.9 7.0 0.00 0.26 0.12 27 1011.0
20260505222005 79 187 1.7 6.1 0.00 0.26 0.12 26 1011.0
20260505221504 79 122 1.7 10.4 0.00 0.26 0.12 26 1011.1
20260505221004 79 358 2.6 10.4 0.00 0.26 0.12 28 1011.1
20260505220504 79 148 1.7 8.7 0.00 0.26 0.12 26 1011.1
20260505220017 80 212 4.3 9.6 0.00 0.26 0.12 26 1011.1
20260505215505 80 170 1.7 9.6 0.00 0.26 0.12 27 1011.3
20260505214517 80 4 2.6 6.1 0.00 0.26 0.12 27 1011.4
20260505214007 80 13 1.7 6.1 0.00 0.26 0.12 27 1011.5
20260505213503 79 122 2.6 6.1 0.00 0.26 0.12 27 1011.6
20260505213021 79 132 2.6 5.2 0.00 0.26 0.12 27 1011.7
20260505212504 79 132 1.7 5.2 0.00 0.26 0.12 25 1011.6
20260505212007 79 188 2.6 6.1 0.00 0.26 0.12 24 1011.8
20260505211007 79 191 1.7 8.7 0.00 0.26 0.12 26 1011.8
20260505210511 79 130 2.6 12.2 0.00 0.26 0.12 26 1011.8
20260505210006 79 62 3.5 12.2 0.00 0.26 0.12 26 1011.9
20260505205509 79 127 2.6 13.9 0.00 0.26 0.12 25 1011.9
20260505205004 78 248 2.6 13.9 0.00 0.26 0.12 25 1011.9
20260505204510 78 214 3.5 9.6 0.00 0.26 0.12 26 1011.9
20260505204004 79 89 3.5 14.8 0.00 0.26 0.12 27 1011.9
20260505203504 79 120 5.2 14.8 0.00 0.26 0.12 26 1011.8
20260505203018 79 159 3.5 11.3 0.00 0.26 0.12 25 1011.9
20260505202508 79 243 2.6 12.2 0.00 0.26 0.12 28 1011.9
20260505202004 79 18 3.5 12.2 0.00 0.26 0.12 27 1011.9
20260505201522 79 152 1.7 12.2 0.00 0.26 0.12 31 1012.0
20260505201007 77 134 3.5 12.2 0.00 0.26 0.12 32 1012.1
20260505200509 77 108 3.5 9.6 0.00 0.26 0.12 31 1012.2
20260505195509 77 75 1.7 7.8 0.00 0.26 0.12 35 1012.3
20260505194520 76 24 2.6 7.8 0.00 0.26 0.12 36 1012.5
20260505194003 76 130 2.6 7.0 0.00 0.26 0.12 37 1012.5
20260505193504 74 129 1.7 5.2 0.00 0.26 0.12 43 1012.5
20260505192505 71 135 0.9 3.5 0.00 0.26 0.12 49 1012.6
20260505192006 71 150 0.9 3.5 0.00 0.26 0.12 51 1012.6
20260505191523 70 199 1.7 3.5 0.00 0.26 0.12 50 1012.6
20260505191004 71 161 1.7 3.5 0.00 0.26 0.12 50 1012.8
20260505190506 71 150 1.7 4.3 0.00 0.26 0.12 50 1012.8
20260505190025 70 203 0.9 6.1 0.00 0.26 0.12 51 1012.8
20260505185509 70 252 2.6 6.1 0.00 0.26 0.12 51 1012.8
20260505185007 71 226 3.5 5.2 0.00 0.26 0.12 50 1013.0
20260505184527 71 195 2.6 6.1 0.00 0.26 0.12 50 1013.0
20260505184006 71 188 2.6 6.1 0.00 0.26 0.12 51 1013.1
20260505183508 71 155 2.6 6.1 0.00 0.26 0.12 51 1013.2
20260505183033 71 224 2.6 6.1 0.00 0.26 0.12 51 1013.3
20260505182503 70 171 0.9 3.5 0.00 0.26 0.12 53 1013.4
20260505182004 70 146 0.9 2.6 0.00 0.26 0.12 52 1013.5
20260505181508 70 182 0.9 1.7 0.00 0.26 0.12 52 1013.6
20260505181005 69 84 0.9 1.7 0.00 0.26 0.12 53 1013.6
20260505180504 68 110 0.0 5.2 0.00 0.26 0.12 55 1013.6
20260505180021 68 112 0.9 5.2 0.00 0.26 0.12 54 1013.7
20260505175504 68 137 0.0 3.5 0.00 0.26 0.12 56 1013.7
20260505175004 68 135 0.9 3.5 0.00 0.26 0.12 55 1013.7
20260505174523 68 131 0.9 5.2 0.00 0.26 0.12 56 1013.7
20260505174009 69 155 1.7 5.2 0.00 0.26 0.12 53 1013.8
20260505173506 69 164 0.9 1.7 0.00 0.26 0.12 54 1013.8
20260505173022 69 199 0.9 4.3 0.00 0.26 0.12 54 1013.8
20260505172512 69 144 0.9 4.3 0.00 0.26 0.12 53 1013.8
20260505172007 68 131 0.0 1.7 0.00 0.26 0.12 59 1013.8
20260505171526 68 192 0.9 3.5 0.00 0.26 0.12 57 1013.9
20260505171014 68 150 0.9 3.5 0.00 0.26 0.12 59 1013.8
20260505170505 68 157 0.0 1.7 0.00 0.26 0.12 61 1013.8
20260505170010 68 152 0.9 2.6 0.00 0.26 0.12 59 1013.8
20260505165503 68 212 0.9 2.6 0.00 0.26 0.12 59 1013.7
20260505165004 68 165 0.9 2.6 0.00 0.26 0.12 60 1013.7
20260505164516 68 315 1.7 2.6 0.00 0.26 0.12 62 1013.7
20260505164004 67 232 0.9 2.6 0.00 0.26 0.12 62 1013.6
20260505163505 66 217 0.0 1.7 0.00 0.26 0.12 66 1013.6
20260505163019 65 229 0.0 1.7 0.00 0.26 0.12 67 1013.7
20260505162503 65 228 0.9 1.7 0.00 0.26 0.12 67 1013.8
20260505162003 65 176 0.0 0.0 0.00 0.26 0.12 70 1013.8
20260505161504 64 176 0.0 0.0 0.00 0.26 0.12 70 1013.9
20260505161004 65 176 0.0 0.0 0.00 0.26 0.12 71 1013.9
20260505160503 64 176 0.0 0.9 0.00 0.26 0.12 71 1014.0
20260505152502 64 44 0.0 1.7 0.00 0.26 0.12 77 1013.6
20260505152002 64 162 0.0 0.9 0.00 0.26 0.12 79 1013.6
20260505151503 63 161 0.0 0.9 0.00 0.26 0.12 78 1013.6
20260505151003 63 162 0.0 0.9 0.00 0.26 0.12 77 1013.6
20260505150503 63 162 0.0 0.9 0.00 0.26 0.12 76 1013.6
20260505140503 61 217 0.0 0.9 0.00 0.26 0.12 86 1013.3
20260505125003 59 227 0.0 1.7 0.01 0.26 0.12 90 1012.5
20260505124506 59 229 0.9 1.7 0.01 0.26 0.12 90 1012.4
20260505124005 59 220 0.9 0.9 0.01 0.26 0.12 90 1012.4
20260505123502 59 219 0.0 0.9 0.01 0.26 0.12 90 1012.4
20260505123010 59 219 0.9 0.9 0.01 0.26 0.12 90 1012.5
20260505122504 58 220 0.0 0.9 0.01 0.26 0.12 90 1012.4
20260505122007 58 220 0.0 0.9 0.01 0.26 0.12 90 1012.5
20260505121508 58 220 0.0 0.9 0.01 0.26 0.12 90 1012.5
20260505121004 58 221 0.0 0.9 0.01 0.26 0.12 90 1012.3
20260505120504 58 221 0.0 0.9 0.00 0.25 0.11 90 1012.1
20260505115502 59 221 0.0 1.7 0.01 0.25 0.11 89 1012.4
20260505115002 59 222 0.0 2.6 0.01 0.25 0.11 89 1012.1
20260505114004 59 223 1.7 2.6 0.01 0.25 0.11 88 1012.1
20260505113503 58 214 0.0 1.7 0.01 0.25 0.11 89 1012.2
20260505113006 58 195 0.0 1.7 0.01 0.25 0.11 89 1012.3
20260505112503 58 229 0.0 1.7 0.01 0.25 0.11 89 1012.6
20260505112003 58 231 0.9 2.6 0.01 0.25 0.11 88 1012.5
20260505111511 58 283 0.9 3.5 0.01 0.25 0.11 88 1012.5
20260505111006 59 233 0.9 3.5 0.02 0.25 0.11 88 1012.4
20260505110505 59 255 0.9 2.6 0.02 0.25 0.11 88 1012.4
20260505102003 59 257 1.7 5.2 0.03 0.24 0.10 89 1012.9
20260505101509 59 229 2.6 5.2 0.04 0.24 0.10 89 1013.3
20260505101003 59 226 1.7 6.1 0.03 0.23 0.09 89 1013.6
20260505100503 59 217 1.7 6.1 0.03 0.23 0.09 89 1013.7
20260505100012 59 263 2.6 6.1 0.03 0.23 0.09 89 1013.6
20260505095503 59 236 2.6 4.3 0.03 0.23 0.09 89 1013.6
20260505095006 59 241 1.7 4.3 0.04 0.23 0.09 89 1013.8
20260505094512 59 240 1.7 4.3 0.04 0.23 0.09 89 1013.8
20260505094006 59 241 1.7 5.2 0.04 0.23 0.09 89 1013.9
20260505093504 59 214 0.9 9.6 0.04 0.23 0.09 89 1014.0
20260505093014 59 224 2.6 9.6 0.03 0.22 0.08 89 1013.9
20260505092504 59 229 4.3 7.8 0.02 0.21 0.07 88 1013.9
20260505092005 59 274 4.3 10.4 0.03 0.21 0.07 88 1014.1
20260505091513 59 264 4.3 10.4 0.02 0.20 0.06 88 1014.1
20260505091004 59 266 4.3 8.7 0.02 0.20 0.06 88 1014.0
20260505090009 59 248 4.3 9.6 0.02 0.20 0.06 88 1014.0
20260505085504 59 284 3.5 8.7 0.03 0.20 0.06 89 1014.1
20260505085003 59 288 3.5 6.1 0.02 0.19 0.05 90 1014.3
20260505084533 59 245 3.5 7.0 0.03 0.19 0.05 90 1014.4
20260505084004 59 267 3.5 7.8 0.03 0.19 0.05 90 1014.4
20260505083503 60 239 2.6 7.8 0.04 0.19 0.05 90 1014.6
20260505083014 60 269 2.6 6.1 0.04 0.19 0.05 89 1015.0
20260505082506 60 287 1.7 4.3 0.04 0.19 0.05 89 1015.2
20260505082004 60 259 1.7 4.3 0.04 0.18 0.04 89 1015.5
20260505081519 60 224 1.7 4.3 0.04 0.18 0.04 89 1015.5
20260505081005 60 267 2.6 5.2 0.04 0.18 0.04 90 1015.4
20260505080504 60 259 1.7 5.2 0.04 0.18 0.04 89 1015.5
20260505080011 60 251 1.7 3.5 0.04 0.18 0.04 89 1015.6
20260505075504 60 224 0.9 1.7 0.04 0.17 0.03 89 1015.9
20260505074514 60 224 0.9 1.7 0.03 0.16 0.02 89 1016.0
20260505074003 60 223 0.9 2.6 0.03 0.16 0.02 88 1016.1
20260505073504 60 224 1.7 2.6 0.03 0.15 0.01 88 1016.1
20260505073016 60 220 0.0 2.6 0.03 0.15 0.01 88 1016.3
20260505072503 60 221 0.9 2.6 0.04 0.15 0.01 88 1016.1
20260505072012 60 222 0.9 2.6 0.03 0.14 0.00 88 1016.0
20260505071519 60 210 0.9 1.7 0.04 0.14 0.00 89 1016.1
20260505071004 60 253 0.9 1.7 0.05 0.14 0.00 89 1016.0
20260505070506 60 212 0.0 1.7 0.06 0.14 0.00 89 1016.0
20260505070016 60 212 0.0 1.7 0.06 0.14 0.00 89 1016.0
20260505065509 60 212 0.0 3.5 0.06 0.13 0.13 88 1015.9
20260505065005 60 204 0.9 3.5 0.06 0.13 0.13 88 1015.8
20260505064519 60 210 0.0 1.7 0.06 0.13 0.13 88 1015.9
20260505064014 60 209 0.9 1.7 0.07 0.13 0.13 88 1015.9
20260505063023 60 215 0.9 2.6 0.06 0.12 0.12 86 1015.9
20260505062003 60 221 1.7 2.6 0.06 0.11 0.11 85 1015.9
20260505061007 60 212 0.9 3.5 0.05 0.09 0.09 84 1015.9
20260505060508 60 226 0.9 3.5 0.04 0.08 0.08 85 1015.8
20260505060016 60 226 0.9 2.6 0.05 0.08 0.08 84 1015.8
20260505055509 61 248 0.9 2.6 0.04 0.07 0.07 84 1015.8
20260505055009 60 238 0.9 2.6 0.04 0.07 0.07 83 1015.8
20260505054518 60 221 0.0 2.6 0.04 0.07 0.07 83 1015.8
20260505054011 60 194 0.9 3.5 0.04 0.06 0.06 84 1015.8
20260505053507 60 174 1.7 3.5 0.04 0.06 0.06 83 1015.8
20260505053022 60 180 0.0 1.7 0.04 0.06 0.06 82 1015.7
20260505051519 60 288 0.9 3.5 0.02 0.04 0.04 82 1015.6
20260505050506 61 223 0.9 1.7 0.02 0.04 0.04 81 1015.6
20260505041508 62 200 0.0 1.7 0.01 0.02 0.02 71 1015.9
20260505041004 62 200 0.0 1.7 0.01 0.02 0.02 68 1015.9
20260505040505 62 176 0.0 1.7 0.01 0.02 0.02 66 1015.9
20260505040014 62 149 0.9 2.6 0.00 0.01 0.01 66 1016.0
20260505035506 62 164 0.0 4.3 0.00 0.01 0.01 63 1015.8
20260505035003 62 260 0.9 4.3 0.00 0.01 0.01 64 1015.6
20260505034524 61 337 0.9 4.3 0.00 0.01 0.01 66 1015.5